CW3518 Weather Reports


Display with metric or nautical units.
time (UTC)temp
F
wind
direction
speed
MPH
gust
MPH
rain 1hr
in
rain 24hr
in
rain mn
in
humidity
%
barometer
mb
20220520014952 86 176 18.0 27.0 0.00 0.00 0.00 43 1000.2
20220520014452 87 181 20.0 27.0 0.00 0.00 0.00 42 1000.2
20220520013951 87 177 15.0 22.0 0.00 0.00 0.00 43 1000.1
20220520013452 87 181 14.0 21.0 0.00 0.00 0.00 43 1000.2
20220520012952 87 184 12.0 21.0 0.00 0.00 0.00 42 1000.2
20220520012451 87 170 14.0 21.0 0.00 0.00 0.00 42 1000.2
20220520011952 87 174 17.0 21.0 0.00 0.00 0.00 41 1000.1
20220520011451 87 175 17.0 24.0 0.00 0.00 0.00 41 1000.1
20220520010951 88 169 16.0 24.0 0.00 0.00 0.00 40 1000.0
20220520010452 88 182 14.0 25.0 0.00 0.00 0.00 39 1000.0
20220520005952 88 188 16.0 25.0 0.00 0.00 0.00 39 1000.0
20220520005452 88 180 17.0 27.0 0.00 0.00 0.00 39 1000.1
20220520004952 88 182 12.0 27.0 0.00 0.00 0.00 38 1000.1
20220520004452 89 190 18.0 23.0 0.00 0.00 0.00 38 1000.1
20220520003952 89 180 15.0 27.0 0.00 0.00 0.00 38 1000.1
20220520003452 89 179 21.0 27.0 0.00 0.00 0.00 38 1000.1
20220520002952 89 174 24.0 26.0 0.00 0.00 0.00 38 1000.1
20220520002452 89 178 21.0 22.0 0.00 0.00 0.00 38 1000.1
20220520001952 89 182 19.0 23.0 0.00 0.00 0.00 38 1000.2
20220520001452 89 182 20.0 26.0 0.00 0.00 0.00 38 1000.2
20220520000952 90 178 18.0 26.0 0.00 0.00 0.00 37 1000.2
20220520000452 90 173 22.0 26.0 0.00 0.00 0.00 37 1000.2
20220519235952 90 174 17.0 26.0 0.00 0.00 0.00 37 1000.2
20220519235452 90 173 18.0 25.0 0.00 0.00 0.00 38 1000.3
20220519234952 90 176 20.0 24.0 0.00 0.00 0.00 38 1000.3
20220519234452 90 168 16.0 26.0 0.00 0.00 0.00 37 1000.4
20220519233952 91 175 21.0 26.0 0.00 0.00 0.00 37 1000.3
20220519233452 91 181 18.0 26.0 0.00 0.00 0.00 37 1000.3
20220519232952 91 175 18.0 26.0 0.00 0.00 0.00 36 1000.4
20220519232452 91 170 20.0 25.0 0.00 0.00 0.00 37 1000.4
20220519231952 91 177 24.0 29.0 0.00 0.00 0.00 36 1000.3
20220519231452 91 198 23.0 29.0 0.00 0.00 0.00 37 1000.4
20220519230952 91 177 18.0 28.0 0.00 0.00 0.00 37 1000.4
20220519230452 92 188 19.0 28.0 0.00 0.00 0.00 37 1000.6
20220519225952 91 180 21.0 26.0 0.00 0.00 0.00 37 1000.5
20220519225452 92 176 26.0 26.0 0.00 0.00 0.00 37 1000.5
20220519224952 92 184 16.0 27.0 0.00 0.00 0.00 37 1000.8
20220519224453 92 178 21.0 27.0 0.00 0.00 0.00 37 1000.7
20220519223952 93 178 15.0 24.0 0.00 0.00 0.00 37 1000.8
20220519223452 93 182 18.0 26.0 0.00 0.00 0.00 37 1000.9
20220519222952 92 181 15.0 26.0 0.00 0.00 0.00 37 1000.8
20220519222452 92 193 14.0 28.0 0.00 0.00 0.00 38 1001.0
20220519221952 92 181 21.0 28.0 0.00 0.00 0.00 37 1000.8
20220519221452 93 167 22.0 28.0 0.00 0.00 0.00 36 1000.9
20220519220952 93 184 21.0 27.0 0.00 0.00 0.00 37 1001.0
20220519220452 93 187 20.0 29.0 0.00 0.00 0.00 36 1001.2
20220519215952 93 198 22.0 29.0 0.00 0.00 0.00 37 1001.2
20220519215452 93 187 26.0 28.0 0.00 0.00 0.00 36 1001.2
20220519214953 93 174 25.0 28.0 0.00 0.00 0.00 36 1001.3
20220519214452 93 205 26.0 32.0 0.00 0.00 0.00 36 1001.4
20220519213952 93 206 26.0 32.0 0.00 0.00 0.00 35 1001.4
20220519213452 93 212 23.0 23.0 0.00 0.00 0.00 37 1001.5
20220519213022 93 178 16.0 23.0 0.00 0.00 0.00 37 1001.7
20220519212452 93 182 13.0 27.0 0.00 0.00 0.00 38 1001.8
20220519211952 92 184 15.0 29.0 0.00 0.00 0.00 38 1001.8
20220519211452 92 181 28.0 29.0 0.00 0.00 0.00 36 1001.7
20220519210952 92 175 17.0 25.0 0.00 0.00 0.00 38 1001.9
20220519210452 92 178 22.0 30.0 0.00 0.00 0.00 37 1002.0
20220519205952 92 198 19.0 30.0 0.00 0.00 0.00 37 1002.1
20220519205452 92 208 26.0 26.0 0.00 0.00 0.00 37 1002.1
20220519204952 92 194 18.0 30.0 0.00 0.00 0.00 38 1002.3
20220519204452 92 182 18.0 30.0 0.00 0.00 0.00 37 1002.2
20220519203952 92 179 26.0 30.0 0.00 0.00 0.00 37 1002.3
20220519203452 91 185 10.0 26.0 0.00 0.00 0.00 39 1002.6
20220519202952 91 197 21.0 26.0 0.00 0.00 0.00 37 1002.6
20220519202452 91 196 18.0 29.0 0.00 0.00 0.00 38 1002.7
20220519201952 91 183 11.0 29.0 0.00 0.00 0.00 39 1002.9
20220519201452 91 171 16.0 26.0 0.00 0.00 0.00 39 1002.9
20220519200952 91 176 19.0 26.0 0.00 0.00 0.00 38 1003.0
20220519200452 91 199 17.0 28.0 0.00 0.00 0.00 40 1003.1
20220519195952 90 185 14.0 28.0 0.00 0.00 0.00 39 1003.2
20220519195452 90 174 17.0 26.0 0.00 0.00 0.00 40 1003.3
20220519194952 91 174 23.0 26.0 0.00 0.00 0.00 38 1003.3
20220519194452 90 178 20.0 25.0 0.00 0.00 0.00 39 1003.4
20220519193952 90 198 21.0 25.0 0.00 0.00 0.00 39 1003.6
20220519193452 90 188 15.0 25.0 0.00 0.00 0.00 40 1003.7
20220519192952 90 194 14.0 25.0 0.00 0.00 0.00 41 1003.8
20220519192452 90 166 17.0 24.0 0.00 0.00 0.00 40 1003.8
20220519191952 90 199 20.0 24.0 0.00 0.00 0.00 40 1004.0
20220519191452 89 177 18.0 24.0 0.00 0.00 0.00 40 1004.0
20220519190952 89 192 20.0 22.0 0.00 0.00 0.00 40 1004.1
20220519190452 89 201 17.0 25.0 0.00 0.00 0.00 41 1004.2
20220519185952 89 201 16.0 25.0 0.00 0.00 0.00 41 1004.3
20220519185452 88 204 19.0 23.0 0.00 0.00 0.00 41 1004.3
20220519184952 89 192 20.0 24.0 0.00 0.00 0.00 41 1004.4
20220519184452 88 171 15.0 24.0 0.00 0.00 0.00 42 1004.5
20220519183952 88 201 18.0 24.0 0.00 0.00 0.00 41 1004.6
20220519183452 88 200 24.0 24.0 0.00 0.00 0.00 42 1004.5
20220519182952 88 180 18.0 24.0 0.00 0.00 0.00 42 1004.7
20220519182452 87 193 19.0 24.0 0.00 0.00 0.00 42 1004.8
20220519181953 87 204 23.0 24.0 0.00 0.00 0.00 44 1004.9
20220519181452 88 201 18.0 21.0 0.00 0.00 0.00 44 1005.0
20220519180952 87 208 20.0 22.0 0.00 0.00 0.00 44 1005.1
20220519180452 86 193 9.0 24.0 0.00 0.00 0.00 46 1005.2
20220519175952 87 169 12.0 24.0 0.00 0.00 0.00 45 1005.3
20220519175452 86 194 17.0 25.0 0.00 0.00 0.00 45 1005.4
20220519174952 86 198 14.0 25.0 0.00 0.00 0.00 47 1005.6
20220519174452 86 179 17.0 27.0 0.00 0.00 0.00 47 1005.5
20220519173952 85 172 21.0 27.0 0.00 0.00 0.00 46 1005.6
20220519173452 86 176 18.0 24.0 0.00 0.00 0.00 47 1005.8
20220519172952 85 178 18.0 26.0 0.00 0.00 0.00 47 1005.9
20220519172452 85 168 17.0 26.0 0.00 0.00 0.00 47 1006.1
20220519171952 84 182 20.0 23.0 0.00 0.00 0.00 48 1006.1
20220519171452 84 170 12.0 26.0 0.00 0.00 0.00 49 1006.4
20220519170952 84 194 14.0 26.0 0.00 0.00 0.00 49 1006.4
20220519170453 84 211 13.0 22.0 0.00 0.00 0.00 50 1006.5
20220519165952 84 186 12.0 21.0 0.00 0.00 0.00 50 1006.6
20220519165452 84 213 17.0 22.0 0.00 0.00 0.00 51 1006.6
20220519164952 83 200 14.0 23.0 0.00 0.00 0.00 51 1006.6
20220519164452 83 197 17.0 23.0 0.00 0.00 0.00 50 1006.7
20220519163952 83 186 19.0 20.0 0.00 0.00 0.00 50 1006.7
20220519163452 83 197 19.0 23.0 0.00 0.00 0.00 50 1006.8
20220519162952 82 184 13.0 23.0 0.00 0.00 0.00 52 1006.9
20220519162452 82 206 16.0 22.0 0.00 0.00 0.00 53 1007.0
20220519161952 82 192 12.0 20.0 0.00 0.00 0.00 53 1007.2
20220519161452 82 201 15.0 20.0 0.00 0.00 0.00 52 1007.2
20220519160952 82 174 13.0 22.0 0.00 0.00 0.00 53 1007.1
20220519160452 81 197 19.0 24.0 0.00 0.00 0.00 54 1007.2
20220519155952 81 202 15.0 24.0 0.00 0.00 0.00 55 1007.2
20220519155452 81 192 17.0 23.0 0.00 0.00 0.00 55 1007.4
20220519154952 81 168 16.0 26.0 0.00 0.00 0.00 55 1007.5
20220519154452 80 203 13.0 26.0 0.00 0.00 0.00 56 1007.6
20220519153952 80 200 26.0 26.0 0.00 0.00 0.00 56 1007.5
20220519153452 80 198 18.0 23.0 0.00 0.00 0.00 56 1007.5
20220519152952 80 201 19.0 23.0 0.00 0.00 0.00 57 1007.5
20220519152452 79 188 15.0 23.0 0.00 0.00 0.00 58 1007.6
20220519151952 79 171 21.0 22.0 0.00 0.00 0.00 58 1007.5
20220519151452 79 183 15.0 24.0 0.00 0.00 0.00 59 1007.7
20220519150953 79 178 15.0 24.0 0.00 0.00 0.00 60 1007.7
20220519150453 79 199 16.0 25.0 0.00 0.00 0.00 60 1007.9
20220519145952 78 184 13.0 25.0 0.00 0.00 0.00 60 1007.8
20220519145452 79 190 17.0 20.0 0.00 0.00 0.00 61 1007.8
20220519144952 78 204 16.0 27.0 0.00 0.00 0.00 63 1007.7
20220519144452 77 201 24.0 27.0 0.00 0.00 0.00 63 1007.6
20220519143952 77 197 14.0 25.0 0.00 0.00 0.00 65 1007.8
20220519143452 77 187 17.0 22.0 0.00 0.00 0.00 67 1007.8
20220519142952 76 180 18.0 22.0 0.00 0.00 0.00 67 1007.8
20220519142452 76 176 22.0 24.0 0.00 0.00 0.00 68 1007.7
20220519141952 76 189 13.0 24.0 0.00 0.00 0.00 69 1007.8
20220519141452 76 182 16.0 23.0 0.00 0.00 0.00 69 1007.8
20220519140952 75 183 16.0 23.0 0.00 0.00 0.00 70 1007.9
20220519140452 75 169 16.0 21.0 0.00 0.00 0.00 70 1007.9
20220519135952 75 171 16.0 23.0 0.00 0.00 0.00 71 1008.0
20220519135452 75 200 20.0 23.0 0.00 0.00 0.00 71 1007.9
20220519134953 74 177 20.0 24.0 0.00 0.00 0.00 72 1007.6
20220519134452 74 176 20.0 24.0 0.00 0.00 0.00 72 1007.6
20220519133952 74 194 18.0 24.0 0.00 0.00 0.00 73 1007.6
20220519133452 74 181 19.0 25.0 0.00 0.00 0.00 73 1007.3
20220519132952 74 178 15.0 25.0 0.00 0.00 0.00 73 1007.2
20220519132452 74 171 13.0 22.0 0.00 0.00 0.00 74 1007.3
20220519131952 74 172 20.0 20.0 0.00 0.00 0.00 74 1007.7
20220519131452 74 173 13.0 18.0 0.00 0.00 0.00 74 1008.0
20220519130952 73 182 13.0 18.0 0.00 0.00 0.00 75 1007.9
20220519130453 73 185 14.0 17.0 0.00 0.00 0.00 75 1008.0
20220519125953 73 167 11.0 16.0 0.00 0.00 0.00 76 1008.1
20220519125453 73 188 13.0 16.0 0.00 0.00 0.00 76 1008.0
20220519124952 73 186 9.0 15.0 0.00 0.00 0.00 76 1008.0
20220519124452 72 174 13.0 14.0 0.00 0.00 0.00 76 1008.1
20220519123952 72 180 10.0 16.0 0.00 0.00 0.00 77 1008.0
20220519123452 72 177 13.0 16.0 0.00 0.00 0.00 78 1007.6
20220519122952 72 178 10.0 10.0 0.00 0.00 0.00 78 1008.1
20220519122453 72 181 3.0 8.0 0.00 0.00 0.00 78 1008.3
20220519121952 71 163 7.0 9.0 0.00 0.00 0.00 79 1008.1
20220519121453 71 169 5.0 13.0 0.00 0.00 0.00 79 1008.3
20220519120952 71 174 7.0 13.0 0.00 0.00 0.00 79 1008.0
20220519120452 71 170 11.0 12.0 0.00 0.00 0.00 79 1007.8
20220519115952 71 182 4.0 6.0 0.00 0.00 0.00 78 1008.3
20220519115452 72 155 6.0 15.0 0.00 0.00 0.00 77 1008.1
20220519114952 72 203 5.0 15.0 0.00 0.00 0.00 77 1008.3
20220519114453 72 169 12.0 13.0 0.00 0.00 0.00 76 1007.9
20220519113952 72 260 3.0 12.0 0.00 0.00 0.00 76 1008.6
20220519113453 72 187 9.0 13.0 0.00 0.00 0.00 76 1008.0
20220519112952 73 290 7.0 18.0 0.00 0.00 0.00 76 1008.6
20220519112453 73 186 13.0 18.0 0.00 0.00 0.00 76 1007.3
20220519111953 72 221 7.0 10.0 0.00 0.00 0.00 76 1008.4
20220519111452 73 322 7.0 9.0 0.00 0.00 0.00 75 1008.5
20220519110953 73 292 4.0 15.0 0.00 0.00 0.00 75 1008.1
20220519110452 73 204 7.0 16.0 0.00 0.00 0.00 75 1007.4
20220519105953 73 180 12.0 16.0 0.00 0.00 0.00 74 1007.0
20220519105452 73 199 9.0 10.0 0.00 0.00 0.00 73 1007.8
20220519104952 74 204 8.0 11.0 0.00 0.00 0.00 73 1007.7
20220519104453 74 210 7.0 11.0 0.00 0.00 0.00 73 1007.6
20220519103952 74 196 7.0 16.0 0.00 0.00 0.00 72 1007.2
20220519103453 74 202 8.0 16.0 0.00 0.00 0.00 72 1007.0
20220519102952 74 199 12.0 20.0 0.00 0.00 0.00 72 1006.7
20220519102452 74 200 16.0 20.0 0.00 0.00 0.00 71 1006.6
20220519101952 74 190 10.0 19.0 0.00 0.00 0.00 71 1006.5
20220519101452 74 200 17.0 19.0 0.00 0.00 0.00 71 1006.5
20220519100953 74 190 14.0 18.0 0.00 0.00 0.00 71 1006.5
20220519100452 75 202 13.0 21.0 0.00 0.00 0.00 70 1006.4
20220519095953 75 195 17.0 21.0 0.00 0.00 0.00 70 1006.4
20220519095452 75 196 17.0 19.0 0.00 0.00 0.00 69 1006.5
20220519094952 75 187 15.0 22.0 0.00 0.00 0.00 69 1006.4
20220519094452 75 178 15.0 22.0 0.00 0.00 0.00 69 1006.4
20220519093952 75 187 13.0 17.0 0.00 0.00 0.00 68 1006.3
20220519093453 75 192 13.0 18.0 0.00 0.00 0.00 68 1006.4
20220519092953 75 188 13.0 18.0 0.00 0.00 0.00 67 1006.6
20220519092452 75 200 13.0 15.0 0.00 0.00 0.00 67 1006.7
20220519091952 75 188 11.0 17.0 0.00 0.00 0.00 66 1006.8
20220519091452 76 192 13.0 17.0 0.00 0.00 0.00 66 1006.7
20220519090952 76 188 13.0 17.0 0.00 0.00 0.00 65 1006.8
20220519090453 76 190 15.0 17.0 0.00 0.00 0.00 65 1006.8
20220519085953 76 191 14.0 17.0 0.00 0.00 0.00 64 1006.9
20220519085453 76 189 12.0 17.0 0.00 0.00 0.00 64 1006.9
20220519084952 76 193 13.0 17.0 0.00 0.00 0.00 63 1007.0
20220519084453 77 185 15.0 17.0 0.00 0.00 0.00 63 1007.1
20220519083452 77 176 11.0 20.0 0.00 0.00 0.00 61 1007.3
20220519082952 77 187 11.0 20.0 0.00 0.00 0.00 60 1007.2
20220519082452 77 197 11.0 20.0 0.00 0.00 0.00 60 1007.1
20220519081952 78 191 14.0 20.0 0.00 0.00 0.00 60 1006.9
20220519081452 77 195 10.0 19.0 0.00 0.00 0.00 60 1006.7
20220519080952 77 191 18.0 19.0 0.00 0.00 0.00 60 1006.5
20220519080453 78 180 14.0 19.0 0.00 0.00 0.00 59 1006.5
20220519075953 78 195 8.0 19.0 0.00 0.00 0.00 59 1006.5
20220519075453 77 184 14.0 16.0 0.00 0.00 0.00 59 1006.4
20220519074952 77 187 11.0 14.0 0.00 0.00 0.00 59 1006.3
20220519074452 77 180 11.0 15.0 0.00 0.00 0.00 58 1006.2
20220519073954 77 181 13.0 18.0 0.00 0.00 0.00 58 1006.1
20220519073453 77 179 11.0 18.0 0.00 0.00 0.00 58 1006.0
20220519072953 77 182 11.0 15.0 0.00 0.00 0.00 58 1006.0
20220519072453 78 192 8.0 15.0 0.00 0.00 0.00 57 1006.1
20220519071952 78 184 10.0 15.0 0.00 0.00 0.00 57 1006.1
20220519071453 78 186 9.0 16.0 0.00 0.00 0.00 56 1006.1
20220519070952 78 188 9.0 18.0 0.00 0.00 0.00 56 1006.1
20220519070454 78 183 16.0 18.0 0.00 0.00 0.00 55 1006.0
20220519065952 78 179 13.0 17.0 0.00 0.00 0.00 55 1006.1
20220519065454 78 176 12.0 17.0 0.00 0.00 0.00 54 1006.2
20220519064952 78 179 14.0 16.0 0.00 0.00 0.00 54 1006.4
20220519064452 78 174 12.0 16.0 0.00 0.00 0.00 54 1006.6
20220519063952 79 174 12.0 13.0 0.00 0.00 0.00 54 1006.8
20220519063453 79 175 12.0 12.0 0.00 0.00 0.00 53 1006.9
20220519062953 79 183 12.0 12.0 0.00 0.00 0.00 53 1007.1
20220519062452 79 176 11.0 12.0 0.00 0.00 0.00 53 1007.2
20220519061953 79 175 9.0 13.0 0.00 0.00 0.00 52 1007.3
20220519061452 79 181 8.0 14.0 0.00 0.00 0.00 52 1007.3
20220519060953 79 193 8.0 14.0 0.00 0.00 0.00 52 1007.5
20220519060452 79 179 10.0 13.0 0.00 0.00 0.00 51 1007.5
20220519055952 79 185 12.0 13.0 0.00 0.00 0.00 51 1007.4
20220519055454 79 185 9.0 13.0 0.00 0.00 0.00 52 1007.5
20220519054953 79 188 9.0 15.0 0.00 0.00 0.00 52 1007.5
20220519054453 79 175 9.0 15.0 0.00 0.00 0.00 52 1007.4
20220519053952 79 183 11.0 15.0 0.00 0.00 0.00 52 1007.3
20220519053453 79 179 12.0 14.0 0.00 0.00 0.00 52 1007.2
20220519052954 79 174 13.0 14.0 0.00 0.00 0.00 53 1007.2
20220519052453 78 170 12.0 12.0 0.00 0.00 0.00 54 1007.3
20220519051953 78 170 10.0 12.0 0.00 0.00 0.00 53 1007.3
20220519051453 78 162 11.0 12.0 0.00 0.00 0.00 53 1007.3
20220519050954 78 167 11.0 12.0 0.00 0.00 0.00 53 1007.5
20220519050453 78 165 9.0 11.0 0.00 0.00 0.00 53 1007.6
20220519045953 79 161 9.0 11.0 0.00 0.00 0.00 53 1007.7
20220519045453 79 162 9.0 11.0 0.00 0.00 0.00 53 1007.7
20220519044952 79 169 9.0 11.0 0.00 0.00 0.00 52 1007.7
20220519044453 79 168 7.0 10.0 0.00 0.00 0.00 53 1007.7
20220519043952 79 170 7.0 10.0 0.00 0.00 0.00 52 1007.8
20220519043453 79 166 8.0 10.0 0.00 0.00 0.00 52 1007.9
20220519042953 79 165 9.0 10.0 0.00 0.00 0.00 51 1007.9
20220519042453 80 161 9.0 10.0 0.00 0.00 0.00 51 1007.8
20220519041952 80 162 7.0 10.0 0.00 0.00 0.00 50 1007.8
20220519041453 80 163 9.0 10.0 0.00 0.00 0.00 49 1007.9
20220519040952 80 171 8.0 10.0 0.00 0.00 0.00 49 1007.9
20220519040452 81 167 8.0 10.0 0.00 0.00 0.00 48 1007.9
20220519035953 81 162 7.0 10.0 0.00 0.00 0.00 48 1007.9
20220519035453 81 169 7.0 10.0 0.00 0.00 0.00 48 1007.9
20220519034953 81 172 9.0 10.0 0.00 0.00 0.00 47 1007.9
20220519034452 82 172 8.0 11.0 0.00 0.00 0.00 47 1007.9
20220519033952 82 169 10.0 11.0 0.00 0.00 0.00 46 1007.8
20220519033453 82 162 10.0 11.0 0.00 0.00 0.00 46 1007.7
20220519032953 82 165 7.0 11.0 0.00 0.00 0.00 45 1007.7
20220519032452 82 167 11.0 11.0 0.00 0.00 0.00 45 1007.6
20220519031952 82 166 9.0 11.0 0.00 0.00 0.00 45 1007.6
20220519031453 82 163 9.0 11.0 0.00 0.00 0.00 44 1007.6
20220519030953 82 152 8.0 13.0 0.00 0.00 0.00 44 1007.5
20220519030453 83 164 9.0 13.0 0.00 0.00 0.00 43 1007.5
20220519025952 83 162 11.0 12.0 0.00 0.00 0.00 43 1007.4
20220519025453 83 161 11.0 12.0 0.00 0.00 0.00 43 1007.3
20220519024953 83 168 9.0 14.0 0.00 0.00 0.00 43 1007.3
20220519024454 83 165 9.0 14.0 0.00 0.00 0.00 42 1007.2
20220519023952 83 165 12.0 14.0 0.00 0.00 0.00 42 1007.1
20220519023453 84 159 10.0 14.0 0.00 0.00 0.00 41 1007.1
20220519022952 84 158 11.0 14.0 0.00 0.00 0.00 41 1007.0
20220519022453 84 159 10.0 15.0 0.00 0.00 0.00 40 1007.0
20220519021953 84 160 11.0 18.0 0.00 0.00 0.00 40 1006.9
20220519021453 85 160 12.0 18.0 0.00 0.00 0.00 39 1006.9
20220519020953 85 161 13.0 16.0 0.00 0.00 0.00 39 1006.9
20220519020454 85 164 13.0 16.0 0.00 0.00 0.00 38 1006.9
20220519015953 85 167 9.0 16.0 0.00 0.00 0.00 38 1006.8
20220519015453 85 160 12.0 16.0 0.00 0.00 0.00 38 1006.7